Home > Time Zones > World Clock > Weather > Canada > Ajax > Past weeks

Flag for Canada Weather past 2 weeks in Ajax, Ontario, Canada

Now
63 °F

Sprinkles. Partly sunny.


Feels Like: 63 °F
Forecast: 59 / 71 °F
Wind: 12 mph from Northwest

Location: Toronto Buttonville

Current Time: Jul 1, 2015 at 9:29:49 AM

Latest Report: Jul 1, 2015 at 8:50 AM


Visibility: 14 mi

Pressure: 29.74 "Hg

Humidity: 83%

Dew point: 57 °F

Location of AjaxLocation

Historic Weather in Ajax — Graph

°F

Ajax temperature yesterday

Maximum temperature yesterday: 66 °F (at 10:00 AM)
Minimum temperature yesterday: 57 °F (at 3:00 AM)
Average temperature yesterday: 62 °F

Past Weeks' High & Low Weather Summary

 TemperatureHumidityPressure
High79 °F (Jun 18, 2:00 PM)100% (Jun 23, 1:04 AM)30.20 "Hg (Jun 23, 1:04 AM)
Low50 °F (Jun 20, 5:00 AM)33% (Jun 17, 7:00 PM)29.62 "Hg (Jun 23, 5:00 AM)
Average65 °F71%29.93 "Hg
* Reported Jun 16 8:00 AM — Jul 1 8:00 AM, Ajax, Weather by CustomWeather, © 2015

Note: Actual official high and low records may vary slightly from our data, if they occured in-between our weather recording intervals... More about our weather records

Advertising

Ajax weather history for previous 24 hours

 ConditionsComfort  
Time TempWeatherWind HumidityBarometerVisibility
8:00 AM
Wed, Jul 1
63 °FPartly sunny.14 mph88%29.72 "Hg13 mi
7:00 AM63 °FFog.6 mph94%29.72 "Hg2 mi
6:00 AM63 °FFog.3 mph94%29.71 "Hg1 mi
5:00 AM61 °FFog.2 mph100%29.70 "Hg1 mi
4:00 AM61 °FFog.2 mph100%29.71 "Hg1 mi
3:00 AM61 °FFog.No wind100%29.72 "Hg1 mi
2:00 AM61 °FFog.No wind94%29.74 "Hg1 mi
1:47 AM61 °FFog.No wind94%29.75 "Hg1 mi
1:00 AM61 °FFog.No wind94%29.75 "Hg1 mi
12:00 AM61 °FFog.6 mph94%29.76 "Hg1 mi
11:00 PM
Tue, Jun 30
61 °FFog.2 mph94%29.77 "Hg1 mi
10:00 PM61 °FFog.6 mph94%29.77 "Hg1 mi
9:45 PM61 °FFog.5 mph94%29.76 "Hg1 mi
9:00 PM61 °FFog.8 mph94%29.76 "Hg1 mi
8:56 PM61 °FFog.6 mph94%29.76 "Hg1 mi
8:00 PM63 °FLow clouds.8 mph94%29.77 "Hg7 mi
7:00 PM63 °FFog.6 mph88%29.77 "Hg6 mi
6:00 PM63 °FFog.7 mph88%29.78 "Hg6 mi
5:00 PM61 °FDrizzle. Low clouds.9 mph94%29.78 "Hg8 mi
4:00 PM61 °FLow clouds.7 mph94%29.80 "Hg10 mi
3:00 PM63 °FLow clouds.13 mph88%29.80 "Hg12 mi
2:00 PM63 °FOvercast.12 mph88%29.81 "Hg12 mi
1:04 PM64 °FOvercast.10 mph83%29.82 "Hg12 mi
12:00 PM64 °FLight rain. Overcast.9 mph83%29.83 "Hg12 mi
11:54 AM64 °FLight rain. Overcast.10 mph83%29.83 "Hg12 mi
11:00 AM66 °FOvercast.9 mph78%29.83 "Hg12 mi
10:00 AM66 °FPartly sunny.8 mph78%29.84 "Hg15 mi
9:00 AM63 °FOvercast.9 mph83%29.86 "Hg12 mi
Weather by CustomWeather, © 2015

See weather overviewHow to use our weather pages